GW0401 Weather Reports


Display with metric or nautical units.
time (UTC)temp
F
wind
direction
speed
MPH
gust
MPH
rain 1hr
in
rain 24hr
in
rain mn
in
humidity
%
barometer
mb
20260506014314 49 10 8.0 12.0 0.00 0.00 0.00 83 1008.0
20260506013814 49 14 9.0 12.0 0.00 0.00 0.00 83 1008.1
20260506012813 49 20 9.0 12.0 0.00 0.00 0.00 83 1008.1
20260506012313 49 14 9.0 12.0 0.00 0.00 0.00 83 1008.1
20260506011814 49 8 8.0 13.0 0.00 0.00 0.00 83 1008.1
20260506011314 49 24 10.0 13.0 0.00 0.00 0.00 83 1008.1
20260506010814 49 7 8.0 12.0 0.00 0.00 0.00 83 1008.1
20260506010314 49 10 9.0 12.0 0.00 0.00 0.00 83 1008.2
20260506005312 49 14 9.0 11.0 0.00 0.00 0.00 82 1008.2
20260506004813 49 11 8.0 11.0 0.00 0.00 0.00 82 1008.3
20260506004312 49 11 7.0 11.0 0.00 0.00 0.00 82 1008.3
20260506003812 49 14 8.0 11.0 0.00 0.00 0.00 82 1008.4
20260506003315 49 11 7.0 12.0 0.00 0.00 0.00 82 1008.4
20260506002814 49 17 9.0 12.0 0.00 0.00 0.00 82 1008.4
20260506002317 49 28 8.0 12.0 0.00 0.00 0.00 82 1008.6
20260506000813 49 32 9.0 13.0 0.00 0.00 0.00 81 1008.6
20260506000312 49 24 9.0 13.0 0.00 0.00 0.00 81 1008.7
20260505235811 49 31 8.0 11.0 0.00 0.00 0.00 81 1008.7
20260505235311 49 30 7.0 12.0 0.00 0.00 0.00 81 1008.8
20260505234808 49 18 6.0 12.0 0.00 0.00 0.00 81 1008.8
20260505234310 49 14 9.0 12.0 0.00 0.00 0.00 81 1008.9
20260505233309 49 25 9.0 14.0 0.00 0.00 0.00 81 1008.9
20260505232810 49 24 9.0 13.0 0.00 0.00 0.00 80 1008.9
20260505232310 49 30 10.0 13.0 0.00 0.00 0.00 80 1009.0
20260505231809 49 21 11.0 13.0 0.00 0.00 0.00 80 1009.0
20260505230809 49 28 10.0 16.0 0.00 0.00 0.00 80 1009.0
20260505230308 49 21 10.0 14.0 0.00 0.00 0.00 80 1009.0
20260505225310 49 27 8.0 13.0 0.00 0.00 0.00 80 1009.0
20260505224808 49 25 10.0 17.0 0.00 0.00 0.00 80 1009.0
20260505224307 49 24 10.0 17.0 0.00 0.00 0.00 80 1009.1
20260505223812 49 17 8.0 15.0 0.00 0.00 0.00 80 1009.1
20260505223308 49 30 11.0 14.0 0.00 0.00 0.00 80 1009.2
20260505222810 49 17 11.0 17.0 0.00 0.00 0.00 80 1009.2
20260505222307 49 21 11.0 17.0 0.00 0.00 0.00 81 1009.2
20260505221808 49 32 10.0 14.0 0.00 0.00 0.00 81 1009.2
20260505221308 49 8 10.0 17.0 0.00 0.00 0.00 81 1009.2
20260505220809 49 14 11.0 17.0 0.00 0.00 0.00 80 1009.3
20260505220307 49 44 11.0 15.0 0.00 0.00 0.00 81 1009.3
20260505215809 49 21 11.0 16.0 0.00 0.00 0.00 81 1009.3
20260505215308 49 31 11.0 16.0 0.00 0.00 0.00 81 1009.3
20260505214806 49 18 12.0 14.0 0.00 0.00 0.00 81 1009.4
20260505214306 49 20 9.0 15.0 0.00 0.00 0.00 81 1009.4
20260505213807 49 17 10.0 15.0 0.00 0.00 0.00 81 1009.4
20260505213306 49 31 10.0 14.0 0.00 0.00 0.00 81 1009.5
20260505212809 49 10 10.0 14.0 0.00 0.00 0.00 81 1009.5
20260505212308 49 23 11.0 14.0 0.00 0.00 0.00 81 1009.5
20260505211306 49 27 11.0 15.0 0.00 0.00 0.00 81 1009.5
20260505210306 49 18 11.0 16.0 0.00 0.00 0.00 81 1009.6
20260505205306 49 28 13.0 16.0 0.00 0.01 0.00 81 1009.6
20260505204808 49 27 13.0 17.0 0.00 0.01 0.00 81 1009.7
20260505204307 49 15 10.0 17.0 0.00 0.01 0.00 81 1009.7
20260505203806 49 27 12.0 16.0 0.00 0.01 0.00 81 1009.8
20260505203312 49 18 11.0 14.0 0.00 0.01 0.00 81 1009.8
20260505202804 49 25 10.0 15.0 0.00 0.01 0.00 81 1009.8
20260505202310 49 21 12.0 15.0 0.00 0.01 0.00 81 1009.8
20260505201807 49 15 10.0 15.0 0.00 0.01 0.00 81 1009.9
20260505200804 49 20 11.0 14.0 0.00 0.01 0.00 81 1009.9
20260505200308 49 28 8.0 15.0 0.00 0.01 0.00 81 1009.8
20260505195804 50 27 9.0 15.0 0.00 0.01 0.00 81 1009.9
20260505195305 50 38 9.0 14.0 0.00 0.01 0.00 81 1009.8
20260505194803 50 24 9.0 14.0 0.00 0.01 0.00 81 1009.8
20260505194305 50 25 9.0 14.0 0.00 0.01 0.00 81 1009.8
20260505193802 50 30 11.0 14.0 0.00 0.01 0.00 81 1009.9
20260505193304 50 20 11.0 14.0 0.00 0.01 0.00 81 1009.8
20260505192803 50 28 10.0 16.0 0.00 0.01 0.00 81 1009.7
20260505192306 50 20 10.0 18.0 0.00 0.01 0.00 81 1009.6
20260505191805 50 20 11.0 18.0 0.00 0.01 0.00 81 1009.6
20260505191304 50 15 9.0 17.0 0.00 0.01 0.00 81 1009.6
20260505185803 50 37 15.0 21.0 0.00 0.01 0.00 81 1009.4
20260505185306 51 17 15.0 18.0 0.00 0.01 0.00 81 1009.3
20260505184803 51 31 12.0 18.0 0.00 0.01 0.00 81 1009.3
20260505184302 51 10 9.0 18.0 0.00 0.01 0.00 81 1009.3
20260505183809 51 23 14.0 18.0 0.00 0.01 0.00 81 1009.2
20260505181802 51 6 14.0 18.0 0.00 0.01 0.00 80 1009.3
20260505181303 51 18 11.0 16.0 0.00 0.01 0.00 80 1009.4
20260505175757 52 15 11.0 18.0 0.00 0.01 0.00 80 1009.4
20260505174757 52 13 15.0 20.0 0.00 0.01 0.00 79 1009.4
20260505173755 52 14 12.0 18.0 0.00 0.01 0.00 79 1009.3
20260505173257 52 28 15.0 20.0 0.00 0.01 0.00 78 1009.3
20260505171754 53 14 13.0 18.0 0.00 0.01 0.00 77 1009.4
20260505171257 53 11 14.0 18.0 0.00 0.01 0.00 76 1009.4
20260505170755 53 14 11.0 17.0 0.00 0.01 0.00 76 1009.4
20260505170253 53 23 11.0 15.0 0.00 0.01 0.00 76 1009.5
20260505165753 53 18 9.0 16.0 0.00 0.01 0.00 75 1009.5
20260505165254 53 20 12.0 16.0 0.00 0.01 0.00 76 1009.5
20260505164755 53 21 12.0 16.0 0.00 0.01 0.00 75 1009.5
20260505164251 53 7 11.0 17.0 0.00 0.01 0.00 76 1009.6
20260505163752 53 13 14.0 17.0 0.00 0.01 0.00 75 1009.5
20260505163258 53 27 12.0 17.0 0.00 0.01 0.00 76 1009.6
20260505162752 53 11 12.0 18.0 0.00 0.01 0.00 76 1009.5
20260505161753 53 20 12.0 19.0 0.00 0.01 0.00 76 1009.6
20260505161253 53 17 14.0 20.0 0.00 0.01 0.00 76 1009.6
20260505160750 53 6 15.0 20.0 0.00 0.01 0.00 76 1009.6
20260505160252 53 13 13.0 20.0 0.00 0.01 0.00 77 1009.7
20260505153250 53 24 15.0 19.0 0.00 0.01 0.00 77 1009.7
20260505152744 53 18 11.0 16.0 0.00 0.01 0.00 78 1009.8
20260505152250 53 21 13.0 16.0 0.00 0.01 0.00 77 1009.7
20260505151743 53 7 14.0 16.0 0.00 0.01 0.00 78 1009.9
20260505151247 53 30 10.0 17.0 0.00 0.01 0.00 79 1009.9
20260505150742 53 23 10.0 17.0 0.00 0.01 0.00 79 1009.9
20260505140246 53 27 11.0 14.0 0.00 0.01 0.00 80 1010.3
20260505124739 52 18 10.0 14.0 0.00 0.01 0.00 79 1010.7
20260505124241 52 35 10.0 13.0 0.00 0.01 0.00 81 1010.8
20260505123739 52 27 10.0 12.0 0.00 0.01 0.00 80 1010.9
20260505123242 52 28 9.0 12.0 0.00 0.01 0.00 80 1011.0
20260505122255 51 35 10.0 13.0 0.00 0.01 0.00 80 1011.0
20260505121738 51 54 10.0 13.0 0.00 0.06 0.00 80 1010.9
20260505121241 52 48 9.0 13.0 0.00 0.09 0.00 80 1010.9
20260505120738 52 35 8.0 13.0 0.00 0.12 0.00 80 1010.9
20260505115336 52 30 9.0 13.0 0.00 0.12 0.00 80 1010.9
20260505114732 52 27 8.0 13.0 0.00 0.12 0.00 81 1010.9
20260505114232 52 27 8.0 13.0 0.00 0.12 0.00 80 1010.9
20260505113732 52 28 10.0 13.0 0.00 0.12 0.00 80 1010.9
20260505113233 51 30 8.0 13.0 0.00 0.12 0.00 81 1011.0
20260505112731 51 27 10.0 13.0 0.00 0.12 0.00 80 1010.9
20260505111732 51 44 9.0 12.0 0.00 0.12 0.00 80 1011.0
20260505111232 51 27 8.0 13.0 0.00 0.12 0.00 80 1011.1
20260505110734 51 56 8.0 13.0 0.00 0.12 0.00 79 1011.2
20260505110231 52 34 9.0 13.0 0.00 0.12 0.00 79 1011.2
20260505100731 51 37 11.0 14.0 0.00 0.12 0.00 80 1011.4
20260505100232 51 35 11.0 14.0 0.00 0.12 0.00 80 1011.4
20260505095731 51 39 9.0 14.0 0.00 0.12 0.00 81 1011.3
20260505094731 50 48 10.0 14.0 0.00 0.12 0.00 82 1011.5
20260505094231 50 44 11.0 15.0 0.00 0.12 0.00 81 1011.4
20260505093732 50 51 11.0 15.0 0.00 0.12 0.00 81 1011.5
20260505093232 50 25 11.0 14.0 0.00 0.12 0.00 81 1011.5
20260505092731 51 21 10.0 13.0 0.00 0.12 0.00 81 1011.6
20260505092231 50 20 9.0 14.0 0.00 0.12 0.00 81 1011.5
20260505091731 51 25 8.0 15.0 0.00 0.12 0.00 82 1011.5
20260505091231 51 34 12.0 15.0 0.00 0.12 0.00 80 1011.5
20260505090733 51 15 11.0 15.0 0.00 0.12 0.00 82 1011.5
20260505090232 50 46 11.0 15.0 0.00 0.12 0.00 81 1011.5
20260505085732 50 27 12.0 15.0 0.00 0.12 0.00 82 1011.5
20260505084732 50 39 14.0 16.0 0.00 0.12 0.00 82 1011.7
20260505083731 50 32 10.0 16.0 0.00 0.12 0.00 83 1011.7
20260505083231 49 32 12.0 16.0 0.00 0.12 0.00 83 1011.8
20260505082731 49 37 12.0 15.0 0.00 0.12 0.00 84 1011.7
20260505082231 49 44 10.0 15.0 0.00 0.12 0.00 85 1011.8
20260505081732 49 27 11.0 15.0 0.00 0.12 0.00 85 1011.9
20260505081231 49 49 10.0 15.0 0.00 0.12 0.00 85 1011.9
20260505080732 48 38 10.0 14.0 0.00 0.12 0.00 85 1011.9
20260505080231 48 34 11.0 16.0 0.00 0.12 0.00 85 1011.9
20260505075734 48 30 11.0 16.0 0.00 0.12 0.00 85 1012.1
20260505075231 48 20 12.0 15.0 0.00 0.12 0.00 85 1012.0
20260505074733 48 38 10.0 15.0 0.00 0.12 0.00 85 1012.1
20260505074232 48 42 11.0 15.0 0.00 0.12 0.00 85 1012.1
20260505073731 48 42 12.0 15.0 0.00 0.12 0.00 85 1012.1
20260505073231 48 38 9.0 14.0 0.00 0.12 0.00 86 1012.0
20260505072733 47 52 10.0 14.0 0.00 0.12 0.00 86 1012.0
20260505072231 47 39 9.0 14.0 0.00 0.12 0.00 86 1012.0
20260505071732 47 34 11.0 14.0 0.00 0.12 0.00 86 1012.0
20260505070232 47 32 9.0 13.0 0.00 0.12 0.00 87 1012.0
20260505065731 47 28 10.0 15.0 0.00 0.12 0.00 87 1012.0
20260505065232 47 48 11.0 15.0 0.00 0.12 0.00 87 1012.0
20260505064734 47 28 10.0 14.0 0.00 0.12 0.00 87 1012.0
20260505064231 47 31 11.0 17.0 0.00 0.12 0.00 87 1012.0
20260505063732 47 28 10.0 17.0 0.00 0.12 0.00 87 1011.9
20260505063236 47 49 10.0 17.0 0.00 0.12 0.00 87 1011.9
20260505062732 47 15 10.0 14.0 0.00 0.12 0.00 87 1011.9
20260505062231 47 63 10.0 14.0 0.00 0.12 0.00 87 1011.8
20260505061230 47 46 9.0 13.0 0.00 0.12 0.00 87 1011.9
20260505060730 47 49 9.0 16.0 0.00 0.12 0.00 86 1011.8
20260505060234 47 51 11.0 16.0 0.00 0.12 0.00 86 1011.8
20260505055731 47 46 11.0 15.0 0.00 0.12 0.00 87 1011.9
20260505054231 47 56 10.0 13.0 0.00 0.12 0.00 86 1011.9
20260505053731 47 41 9.0 13.0 0.00 0.12 0.00 87 1011.9
20260505053232 47 30 8.0 13.0 0.00 0.12 0.00 87 1011.9
20260505052730 47 27 8.0 15.0 0.00 0.12 0.00 87 1011.9
20260505052231 47 37 10.0 15.0 0.00 0.12 0.00 87 1012.0
20260505050732 47 42 10.0 14.0 0.00 0.12 0.00 87 1012.0
20260505050231 47 45 9.0 12.0 0.00 0.12 0.00 87 1011.9
20260505041732 47 54 9.0 13.0 0.00 0.12 0.00 86 1011.7
20260505041231 47 49 10.0 13.0 0.00 0.12 0.00 86 1011.8
20260505040731 47 51 9.0 13.0 0.00 0.12 0.00 86 1011.8
20260505040232 47 52 9.0 13.0 0.00 0.12 0.00 87 1011.7
20260505035730 47 52 9.0 14.0 0.00 0.12 0.00 87 1011.7
20260505035229 47 37 11.0 16.0 0.00 0.12 0.00 86 1011.7
20260505034729 47 51 13.0 16.0 0.00 0.12 0.00 87 1011.6
20260505034230 47 49 10.0 14.0 0.00 0.12 0.00 87 1011.6
20260505033729 47 56 10.0 13.0 0.00 0.12 0.00 86 1011.7
20260505033229 47 52 9.0 17.0 0.00 0.12 0.00 87 1011.7
20260505032729 47 42 11.0 17.0 0.00 0.12 0.00 86 1011.7
20260505032233 47 41 10.0 15.0 0.00 0.12 0.00 87 1011.7
20260505031711 47 41 12.0 15.0 0.00 0.12 0.00 86 1011.7
20260505031213 47 49 11.0 15.0 0.00 0.12 0.00 87 1011.8
20260505030712 47 45 11.0 15.0 0.00 0.12 0.00 87 1011.8
20260505025216 47 24 10.0 15.0 0.00 0.12 0.00 86 1012.0
20260505024211 47 49 10.0 14.0 0.00 0.12 0.00 86 1012.0
20260505023709 47 39 9.0 15.0 0.00 0.12 0.00 86 1012.0
20260505023207 47 30 10.0 15.0 0.00 0.12 0.00 86 1012.1
20260505022208 47 41 9.0 14.0 0.00 0.12 0.00 86 1012.0
20260505021708 47 25 10.0 16.0 0.00 0.12 0.00 86 1012.1
20260505021208 47 41 12.0 16.0 0.00 0.12 0.00 86 1012.1
20260505020707 47 49 12.0 15.0 0.00 0.12 0.00 86 1012.1
20260505020207 47 30 10.0 14.0 0.00 0.12 0.00 86 1012.2
20260505015207 47 34 10.0 17.0 0.00 0.12 0.00 85 1012.2